Year,Month,Day,Hour,Minute,Value (Times are PST for temperature in C)
2016,06,20,00,00,10.70
2016,06,20,00,01,10.70
2016,06,20,00,02,10.70
2016,06,20,00,03,10.70
2016,06,20,00,04,10.60
2016,06,20,00,05,10.60
2016,06,20,00,06,10.50
2016,06,20,00,07,10.50
2016,06,20,00,08,10.40
2016,06,20,00,09,10.40
2016,06,20,00,10,10.40
2016,06,20,00,11,10.40
2016,06,20,00,12,10.40
2016,06,20,00,13,10.40
2016,06,20,00,14,10.40
2016,06,20,00,15,10.30
2016,06,20,00,16,10.30
2016,06,20,00,17,10.30
2016,06,20,00,18,10.30
2016,06,20,00,19,10.30
2016,06,20,00,20,10.30
2016,06,20,00,21,10.30
2016,06,20,00,22,10.30
2016,06,20,00,23,10.30
2016,06,20,00,24,10.30
2016,06,20,00,25,10.30
2016,06,20,00,26,10.30
2016,06,20,00,27,10.30
2016,06,20,00,28,10.30
2016,06,20,00,29,10.30
2016,06,20,00,30,10.30
2016,06,20,00,31,10.30
2016,06,20,00,32,10.30
2016,06,20,00,33,10.30
2016,06,20,00,34,10.30
2016,06,20,00,35,10.30
2016,06,20,00,36,10.30
2016,06,20,00,37,10.30
2016,06,20,00,38,10.30
2016,06,20,00,39,10.30
2016,06,20,00,40,10.40
2016,06,20,00,41,10.40
2016,06,20,00,42,10.40
2016,06,20,00,43,10.40
2016,06,20,00,44,10.50
2016,06,20,00,45,10.50
2016,06,20,00,46,10.50
2016,06,20,00,47,10.50
2016,06,20,00,48,10.50
2016,06,20,00,49,10.50
2016,06,20,00,50,10.50
2016,06,20,00,51,10.50
2016,06,20,00,52,10.50
2016,06,20,00,53,10.50
2016,06,20,00,54,10.50
2016,06,20,00,55,10.60
2016,06,20,00,56,10.60
2016,06,20,00,57,10.60
2016,06,20,00,58,10.60
2016,06,20,00,59,10.60
2016,06,20,01,00,10.60
2016,06,20,01,01,10.60
2016,06,20,01,02,10.60
2016,06,20,01,03,10.50
2016,06,20,01,04,10.50
2016,06,20,01,05,10.40
2016,06,20,01,06,10.40
2016,06,20,01,07,10.50
2016,06,20,01,08,10.40
2016,06,20,01,09,10.40
2016,06,20,01,10,10.40
2016,06,20,01,11,10.40
2016,06,20,01,12,10.40
2016,06,20,01,13,10.40
2016,06,20,01,14,10.50
2016,06,20,01,15,10.50
2016,06,20,01,16,10.50
2016,06,20,01,17,10.50
2016,06,20,01,18,10.50
2016,06,20,01,19,10.50
2016,06,20,01,20,10.50
2016,06,20,01,21,10.50
2016,06,20,01,22,10.50
2016,06,20,01,23,10.50
2016,06,20,01,24,10.50
2016,06,20,01,25,10.60
2016,06,20,01,26,10.60
2016,06,20,01,27,10.60
2016,06,20,01,28,10.60
2016,06,20,01,29,10.60
2016,06,20,01,30,10.70
2016,06,20,01,31,10.70
2016,06,20,01,32,10.70
2016,06,20,01,33,10.70
2016,06,20,01,34,10.70
2016,06,20,01,35,10.70
2016,06,20,01,36,10.70
2016,06,20,01,37,10.70
2016,06,20,01,38,10.70
2016,06,20,01,39,10.70
2016,06,20,01,40,10.70
2016,06,20,01,41,10.70
2016,06,20,01,42,10.70
2016,06,20,01,43,10.70
2016,06,20,01,44,10.70
2016,06,20,01,45,10.80
2016,06,20,01,46,10.80
2016,06,20,01,47,10.80
2016,06,20,01,48,10.80
2016,06,20,01,49,10.90
2016,06,20,01,50,10.90
2016,06,20,01,51,10.90
2016,06,20,01,52,10.80
2016,06,20,01,53,10.90
2016,06,20,01,54,10.90
2016,06,20,01,55,10.90
2016,06,20,01,56,10.90
2016,06,20,01,57,10.80
2016,06,20,01,58,10.80
2016,06,20,01,59,10.80
2016,06,20,02,00,10.80
2016,06,20,02,01,10.80
2016,06,20,02,02,10.70
2016,06,20,02,03,10.70
2016,06,20,02,04,10.70
2016,06,20,02,05,10.70
2016,06,20,02,06,10.70
2016,06,20,02,07,10.70
2016,06,20,02,08,10.70
2016,06,20,02,09,10.70
2016,06,20,02,10,10.60
2016,06,20,02,11,10.60
2016,06,20,02,12,10.60
2016,06,20,02,13,10.60
2016,06,20,02,14,10.50
2016,06,20,02,15,10.50
2016,06,20,02,16,10.40
2016,06,20,02,17,10.40
2016,06,20,02,18,10.40
2016,06,20,02,19,10.30
2016,06,20,02,20,10.30
2016,06,20,02,21,10.30
2016,06,20,02,22,10.30
2016,06,20,02,23,10.20
2016,06,20,02,24,10.20
2016,06,20,02,25,10.20
2016,06,20,02,26,10.20
2016,06,20,02,27,10.10
2016,06,20,02,28,10.10
2016,06,20,02,29,10.10
2016,06,20,02,30,10.10
2016,06,20,02,31,10.10
2016,06,20,02,32,10.10
2016,06,20,02,33,10.00
2016,06,20,02,34,10.00
2016,06,20,02,35,9.90
2016,06,20,02,36,9.90
2016,06,20,02,37,9.90
2016,06,20,02,38,9.90
2016,06,20,02,39,9.90
2016,06,20,02,40,9.90
2016,06,20,02,41,9.90
2016,06,20,02,42,9.90
2016,06,20,02,43,9.90
2016,06,20,02,44,9.90
2016,06,20,02,45,9.90
2016,06,20,02,46,9.90
2016,06,20,02,47,9.90
2016,06,20,02,48,9.80
2016,06,20,02,49,9.80
2016,06,20,02,50,9.80
2016,06,20,02,51,9.70
2016,06,20,02,52,9.70
2016,06,20,02,53,9.80
2016,06,20,02,54,9.90
2016,06,20,02,55,9.90
2016,06,20,02,56,9.90
2016,06,20,02,57,9.90
2016,06,20,02,58,9.90
2016,06,20,02,59,10.00
2016,06,20,03,00,10.00
2016,06,20,03,01,10.00
2016,06,20,03,02,10.00
2016,06,20,03,03,10.00
2016,06,20,03,04,9.90
2016,06,20,03,05,9.90
2016,06,20,03,06,9.90
2016,06,20,03,07,9.90
2016,06,20,03,08,9.90
2016,06,20,03,09,9.90
2016,06,20,03,10,9.90
2016,06,20,03,11,9.80
2016,06,20,03,12,9.80
2016,06,20,03,13,9.80
2016,06,20,03,14,9.80
2016,06,20,03,15,9.70
2016,06,20,03,16,9.70
2016,06,20,03,17,9.70
2016,06,20,03,18,9.70
2016,06,20,03,19,9.70
2016,06,20,03,20,9.70
2016,06,20,03,21,9.70
2016,06,20,03,22,9.60
2016,06,20,03,23,9.60
2016,06,20,03,24,9.60
2016,06,20,03,25,9.60
2016,06,20,03,26,9.60
2016,06,20,03,27,9.50
2016,06,20,03,28,9.50
2016,06,20,03,29,9.50
2016,06,20,03,30,9.50
2016,06,20,03,31,9.40
2016,06,20,03,32,9.40
2016,06,20,03,33,9.40
2016,06,20,03,34,9.40
2016,06,20,03,35,9.40
2016,06,20,03,36,9.40
2016,06,20,03,37,9.40
2016,06,20,03,38,9.40
2016,06,20,03,39,9.40
2016,06,20,03,40,9.40
2016,06,20,03,41,9.30
2016,06,20,03,42,9.30
2016,06,20,03,43,9.30
2016,06,20,03,44,9.30
2016,06,20,03,45,9.30
2016,06,20,03,46,9.30
2016,06,20,03,47,9.20
2016,06,20,03,48,9.20
2016,06,20,03,49,9.20
2016,06,20,03,50,9.20
2016,06,20,03,51,9.20
2016,06,20,03,52,9.20
2016,06,20,03,53,9.20
2016,06,20,03,54,9.20
2016,06,20,03,55,9.20
2016,06,20,03,56,9.20
2016,06,20,03,57,9.20
2016,06,20,03,58,9.30
2016,06,20,03,59,9.30
2016,06,20,04,00,9.40
2016,06,20,04,01,9.40
2016,06,20,04,02,9.50
2016,06,20,04,03,9.50
2016,06,20,04,04,9.50
2016,06,20,04,05,9.50
2016,06,20,04,06,9.40
2016,06,20,04,07,9.40
2016,06,20,04,08,9.40
2016,06,20,04,09,9.40
2016,06,20,04,10,9.50
2016,06,20,04,11,9.50
2016,06,20,04,12,9.50
2016,06,20,04,13,9.50
2016,06,20,04,14,9.60
2016,06,20,04,15,9.70
2016,06,20,04,16,9.70
2016,06,20,04,17,9.70
2016,06,20,04,18,9.70
2016,06,20,04,19,9.70
2016,06,20,04,20,9.70
2016,06,20,04,21,9.60
2016,06,20,04,22,9.60
2016,06,20,04,23,9.60
2016,06,20,04,24,9.60
2016,06,20,04,25,9.50
2016,06,20,04,26,9.50
2016,06,20,04,27,9.40
2016,06,20,04,28,9.40
2016,06,20,04,29,9.40
2016,06,20,04,30,9.40
2016,06,20,04,31,9.40
2016,06,20,04,32,9.50
2016,06,20,04,33,9.60
2016,06,20,04,34,9.60
2016,06,20,04,35,9.60
2016,06,20,04,36,9.60
2016,06,20,04,37,9.60
2016,06,20,04,38,9.70
2016,06,20,04,39,9.70
2016,06,20,04,40,9.70
2016,06,20,04,41,9.70
2016,06,20,04,42,9.70
2016,06,20,04,43,9.70
2016,06,20,04,44,9.70
2016,06,20,04,45,9.70
2016,06,20,04,46,9.70
2016,06,20,04,47,9.70
2016,06,20,04,48,9.70
2016,06,20,04,49,9.70
2016,06,20,04,50,9.80
2016,06,20,04,51,9.80
2016,06,20,04,52,9.80
2016,06,20,04,53,9.80
2016,06,20,04,54,9.80
2016,06,20,04,55,9.80
2016,06,20,04,56,9.80
2016,06,20,04,57,9.80
2016,06,20,04,58,9.80
2016,06,20,04,59,9.70
2016,06,20,05,00,9.80
2016,06,20,05,01,9.80
2016,06,20,05,02,9.80
2016,06,20,05,03,9.80
2016,06,20,05,04,9.80
2016,06,20,05,05,9.90
2016,06,20,05,06,9.90
2016,06,20,05,07,9.90
2016,06,20,05,08,9.90
2016,06,20,05,09,9.90
2016,06,20,05,10,9.90
2016,06,20,05,11,9.90
2016,06,20,05,12,9.90
2016,06,20,05,13,9.90
2016,06,20,05,14,9.80
2016,06,20,05,15,9.80
2016,06,20,05,16,9.80
2016,06,20,05,17,9.80
2016,06,20,05,18,9.70
2016,06,20,05,19,9.70
2016,06,20,05,20,9.70
2016,06,20,05,21,9.70
2016,06,20,05,22,9.70
2016,06,20,05,23,9.70
2016,06,20,05,24,9.70
2016,06,20,05,25,9.70
2016,06,20,05,26,9.70
2016,06,20,05,27,9.80
2016,06,20,05,28,9.80
2016,06,20,05,29,9.80
2016,06,20,05,30,9.80
2016,06,20,05,31,9.80
2016,06,20,05,32,9.80
2016,06,20,05,33,9.80
2016,06,20,05,34,9.90
2016,06,20,05,35,9.90
2016,06,20,05,36,9.90
2016,06,20,05,37,9.90
2016,06,20,05,38,9.90
2016,06,20,05,39,9.90
2016,06,20,05,40,9.90
2016,06,20,05,41,10.00
2016,06,20,05,42,10.00
2016,06,20,05,43,10.10
2016,06,20,05,44,10.10
2016,06,20,05,45,10.20
2016,06,20,05,46,10.20
2016,06,20,05,47,10.20
2016,06,20,05,48,10.30
2016,06,20,05,49,10.30
2016,06,20,05,50,10.30
2016,06,20,05,51,10.40
2016,06,20,05,52,10.40
2016,06,20,05,53,10.50
2016,06,20,05,54,10.60
2016,06,20,05,55,10.60
2016,06,20,05,56,10.70
2016,06,20,05,57,10.80
2016,06,20,05,58,10.80
2016,06,20,05,59,10.80
2016,06,20,06,00,10.80
2016,06,20,06,01,10.80
2016,06,20,06,02,10.80
2016,06,20,06,03,10.80
2016,06,20,06,04,10.90
2016,06,20,06,05,11.00
2016,06,20,06,06,11.00
2016,06,20,06,07,11.20
2016,06,20,06,08,11.20
2016,06,20,06,09,11.30
2016,06,20,06,10,11.40
2016,06,20,06,11,11.40
2016,06,20,06,12,11.50
2016,06,20,06,13,11.60
2016,06,20,06,14,11.60
2016,06,20,06,15,11.60
2016,06,20,06,16,11.70
2016,06,20,06,17,11.80
2016,06,20,06,18,11.90
2016,06,20,06,19,12.00
2016,06,20,06,20,12.10
2016,06,20,06,21,12.10
2016,06,20,06,22,12.20
2016,06,20,06,23,12.30
2016,06,20,06,24,12.30
2016,06,20,06,25,12.40
2016,06,20,06,26,12.50
2016,06,20,06,27,12.50
2016,06,20,06,28,12.60
2016,06,20,06,29,12.60
2016,06,20,06,30,12.70
2016,06,20,06,31,12.70
2016,06,20,06,32,12.80
2016,06,20,06,33,12.80
2016,06,20,06,34,12.80
2016,06,20,06,35,12.90
2016,06,20,06,36,12.90
2016,06,20,06,37,13.00
2016,06,20,06,38,13.10
2016,06,20,06,39,13.10
2016,06,20,06,40,13.20
2016,06,20,06,41,13.20
2016,06,20,06,42,13.30
2016,06,20,06,43,13.30
2016,06,20,06,44,13.30
2016,06,20,06,45,13.40
2016,06,20,06,46,13.40
2016,06,20,06,47,13.50
2016,06,20,06,48,13.50
2016,06,20,06,49,13.60
2016,06,20,06,50,13.60
2016,06,20,06,51,13.60
2016,06,20,06,52,13.70
2016,06,20,06,53,13.70
2016,06,20,06,54,13.70
2016,06,20,06,55,13.80
2016,06,20,06,56,13.80
2016,06,20,06,57,13.80
2016,06,20,06,58,13.80
2016,06,20,06,59,13.90
2016,06,20,07,00,13.90
2016,06,20,07,01,13.90
2016,06,20,07,02,13.90
2016,06,20,07,03,13.90
2016,06,20,07,04,13.90
2016,06,20,07,05,13.90
2016,06,20,07,06,14.00
2016,06,20,07,07,14.00
2016,06,20,07,08,14.00
2016,06,20,07,09,14.10
2016,06,20,07,10,14.10
2016,06,20,07,11,14.10
2016,06,20,07,12,14.10
2016,06,20,07,13,14.20
2016,06,20,07,14,14.20
2016,06,20,07,15,14.20
2016,06,20,07,16,14.20
2016,06,20,07,17,14.30
2016,06,20,07,18,14.30
2016,06,20,07,19,14.30
2016,06,20,07,20,14.30
2016,06,20,07,21,14.40
2016,06,20,07,22,14.40
2016,06,20,07,23,14.40
2016,06,20,07,24,14.50
2016,06,20,07,25,14.50
2016,06,20,07,26,14.50
2016,06,20,07,27,14.60
2016,06,20,07,28,14.60
2016,06,20,07,29,14.60
2016,06,20,07,30,14.60
2016,06,20,07,31,14.60
2016,06,20,07,32,14.60
2016,06,20,07,33,14.60
2016,06,20,07,34,14.70
2016,06,20,07,35,14.70
2016,06,20,07,36,14.70
2016,06,20,07,37,14.80
2016,06,20,07,38,14.80
2016,06,20,07,39,14.80
2016,06,20,07,40,14.90
2016,06,20,07,41,14.90
2016,06,20,07,42,15.00
2016,06,20,07,43,15.00
2016,06,20,07,44,15.00
2016,06,20,07,45,15.00
2016,06,20,07,46,15.00
2016,06,20,07,47,15.00
2016,06,20,07,48,15.00
2016,06,20,07,49,15.00
2016,06,20,07,50,15.00
2016,06,20,07,51,15.00
2016,06,20,07,52,15.00
2016,06,20,07,53,15.00
2016,06,20,07,54,15.00
2016,06,20,07,55,15.00
2016,06,20,07,56,15.00
2016,06,20,07,57,15.00
2016,06,20,07,58,15.00
2016,06,20,07,59,15.00
2016,06,20,08,00,15.00
2016,06,20,08,01,15.00
2016,06,20,08,02,15.00
2016,06,20,08,03,15.00
2016,06,20,08,04,15.10
2016,06,20,08,05,15.10
2016,06,20,08,06,15.10
2016,06,20,08,07,15.10
2016,06,20,08,08,15.20
2016,06,20,08,09,15.20
2016,06,20,08,10,15.20
2016,06,20,08,11,15.20
2016,06,20,08,12,15.20
2016,06,20,08,13,15.20
2016,06,20,08,14,15.30
2016,06,20,08,15,15.30
2016,06,20,08,16,15.30
2016,06,20,08,17,15.30
2016,06,20,08,18,15.40
2016,06,20,08,19,15.40
2016,06,20,08,20,15.40
2016,06,20,08,21,15.50
2016,06,20,08,22,15.50
2016,06,20,08,23,15.50
2016,06,20,08,24,15.60
2016,06,20,08,25,15.60
2016,06,20,08,26,15.60
2016,06,20,08,27,15.60
2016,06,20,08,28,15.70
2016,06,20,08,29,15.70
2016,06,20,08,30,15.80
2016,06,20,08,31,15.80
2016,06,20,08,32,15.80
2016,06,20,08,33,15.90
2016,06,20,08,34,15.90
2016,06,20,08,35,16.00
2016,06,20,08,36,16.00
2016,06,20,08,37,16.00
2016,06,20,08,38,16.00
2016,06,20,08,39,16.00
2016,06,20,08,40,16.00
2016,06,20,08,41,16.00
2016,06,20,08,42,16.10
2016,06,20,08,43,16.10
2016,06,20,08,44,16.10
2016,06,20,08,45,16.10
2016,06,20,08,46,16.10
2016,06,20,08,47,16.20
2016,06,20,08,48,16.20
2016,06,20,08,49,16.10
2016,06,20,08,50,16.10
2016,06,20,08,51,16.20
2016,06,20,08,52,16.20
2016,06,20,08,53,16.20
2016,06,20,08,54,16.20
2016,06,20,08,55,16.10
2016,06,20,08,56,16.10
2016,06,20,08,57,16.00
2016,06,20,08,58,16.00
2016,06,20,08,59,16.00
2016,06,20,09,00,16.10
2016,06,20,09,01,16.10
2016,06,20,09,02,16.10
2016,06,20,09,03,16.10
2016,06,20,09,04,16.10
2016,06,20,09,05,16.10
2016,06,20,09,06,16.10
2016,06,20,09,07,16.10
2016,06,20,09,08,16.10
2016,06,20,09,09,16.10
2016,06,20,09,10,16.10
2016,06,20,09,11,16.10
2016,06,20,09,12,16.10
2016,06,20,09,13,16.10
2016,06,20,09,14,16.10
2016,06,20,09,15,16.10
2016,06,20,09,16,16.10
2016,06,20,09,17,16.10
2016,06,20,09,18,16.10
2016,06,20,09,19,16.10
2016,06,20,09,20,16.10
2016,06,20,09,21,16.10
2016,06,20,09,22,16.20
2016,06,20,09,23,16.20
2016,06,20,09,24,16.20
2016,06,20,09,25,16.30
2016,06,20,09,26,16.40
2016,06,20,09,27,16.50
2016,06,20,09,28,16.50
2016,06,20,09,29,16.60
2016,06,20,09,30,16.60
2016,06,20,09,31,16.60
2016,06,20,09,32,16.60
2016,06,20,09,33,16.60
2016,06,20,09,34,16.60
2016,06,20,09,35,16.60
2016,06,20,09,36,16.70
2016,06,20,09,37,16.70
2016,06,20,09,38,16.70
2016,06,20,09,39,16.70
2016,06,20,09,40,16.70
2016,06,20,09,41,16.70
2016,06,20,09,42,16.70
2016,06,20,09,43,16.70
2016,06,20,09,44,16.70
2016,06,20,09,45,16.70
2016,06,20,09,46,16.70
2016,06,20,09,47,16.80
2016,06,20,09,48,16.80
2016,06,20,09,49,16.90
2016,06,20,09,50,16.90
2016,06,20,09,51,16.90
2016,06,20,09,52,16.90
2016,06,20,09,53,16.90
2016,06,20,09,54,16.90
2016,06,20,09,55,16.90
2016,06,20,09,56,16.90
2016,06,20,09,57,16.90
2016,06,20,09,58,17.00
2016,06,20,09,59,17.00
2016,06,20,10,00,17.00
2016,06,20,10,01,17.10
2016,06,20,10,02,17.20
2016,06,20,10,03,17.30
2016,06,20,10,04,17.40
2016,06,20,10,05,17.50
2016,06,20,10,06,17.50
2016,06,20,10,07,17.50
2016,06,20,10,08,17.50
2016,06,20,10,09,17.40
2016,06,20,10,10,17.30
2016,06,20,10,11,17.30
2016,06,20,10,12,17.40
2016,06,20,10,13,17.30
2016,06,20,10,14,17.40
2016,06,20,10,15,17.40
2016,06,20,10,16,17.50
2016,06,20,10,17,17.60
2016,06,20,10,18,17.60
2016,06,20,10,19,17.50
2016,06,20,10,20,17.50
2016,06,20,10,21,17.50
2016,06,20,10,22,17.50
2016,06,20,10,23,17.40
2016,06,20,10,24,17.40
2016,06,20,10,25,17.40
2016,06,20,10,26,17.50
2016,06,20,10,27,17.60
2016,06,20,10,28,17.60
2016,06,20,10,29,17.60
2016,06,20,10,30,17.50
2016,06,20,10,31,17.40
2016,06,20,10,32,17.30
2016,06,20,10,33,17.30
2016,06,20,10,34,17.20
2016,06,20,10,35,17.30
2016,06,20,10,36,17.30
2016,06,20,10,37,17.30
2016,06,20,10,38,17.30
2016,06,20,10,39,17.30
2016,06,20,10,40,17.40
2016,06,20,10,41,17.40
2016,06,20,10,42,17.40
2016,06,20,10,43,17.40
2016,06,20,10,44,17.40
2016,06,20,10,45,17.40
2016,06,20,10,46,17.40
2016,06,20,10,47,17.40
2016,06,20,10,48,17.50
2016,06,20,10,49,17.50
2016,06,20,10,50,17.50
2016,06,20,10,51,17.50
2016,06,20,10,52,17.60
2016,06,20,10,53,17.70
2016,06,20,10,54,17.70
2016,06,20,10,55,17.70
2016,06,20,10,56,17.80
2016,06,20,10,57,17.80
2016,06,20,10,58,17.90
2016,06,20,10,59,18.00
2016,06,20,11,00,18.10
2016,06,20,11,01,18.20
2016,06,20,11,02,18.20
2016,06,20,11,03,18.20
2016,06,20,11,04,18.20
2016,06,20,11,05,18.10
2016,06,20,11,06,18.10
2016,06,20,11,07,18.10
2016,06,20,11,08,18.00
2016,06,20,11,09,18.00
2016,06,20,11,10,17.90
2016,06,20,11,11,17.90
2016,06,20,11,12,17.90
2016,06,20,11,13,18.00
2016,06,20,11,14,18.00
2016,06,20,11,15,17.90
2016,06,20,11,16,17.90
2016,06,20,11,17,17.90
2016,06,20,11,18,17.90
2016,06,20,11,19,18.00
2016,06,20,11,20,18.00
2016,06,20,11,21,18.10
2016,06,20,11,22,18.10
2016,06,20,11,23,18.20
2016,06,20,11,24,18.20
2016,06,20,11,25,18.30
2016,06,20,11,26,18.30
2016,06,20,11,27,18.30
2016,06,20,11,28,18.30
2016,06,20,11,29,18.40
2016,06,20,11,30,18.40
2016,06,20,11,31,18.40
2016,06,20,11,32,18.40
2016,06,20,11,33,18.40
2016,06,20,11,34,18.40
2016,06,20,11,35,18.40
2016,06,20,11,36,18.40
2016,06,20,11,37,18.40
2016,06,20,11,38,18.50
2016,06,20,11,39,18.50
2016,06,20,11,40,18.50
2016,06,20,11,41,18.50
2016,06,20,11,42,18.60
2016,06,20,11,43,18.60
2016,06,20,11,44,18.60
2016,06,20,11,45,18.60
2016,06,20,11,46,18.60
2016,06,20,11,47,18.60
2016,06,20,11,48,18.60
2016,06,20,11,49,18.60
2016,06,20,11,50,18.60
2016,06,20,11,51,18.50
2016,06,20,11,52,18.50
2016,06,20,11,53,18.40
2016,06,20,11,54,18.40
2016,06,20,11,55,18.30
2016,06,20,11,56,18.20
2016,06,20,11,57,18.20
2016,06,20,11,58,18.10
2016,06,20,11,59,18.10
2016,06,20,12,00,18.10
2016,06,20,12,01,18.20
2016,06,20,12,02,18.20
2016,06,20,12,03,18.20
2016,06,20,12,04,18.20
2016,06,20,12,05,18.20
2016,06,20,12,06,18.20
2016,06,20,12,07,18.10
2016,06,20,12,08,18.00
2016,06,20,12,09,17.90
2016,06,20,12,10,17.90
2016,06,20,12,11,17.90
2016,06,20,12,12,17.80
2016,06,20,12,13,17.80
2016,06,20,12,14,17.80
2016,06,20,12,15,17.90
2016,06,20,12,16,18.00
2016,06,20,12,17,18.10
2016,06,20,12,18,18.20
2016,06,20,12,19,18.30
2016,06,20,12,20,18.40
2016,06,20,12,21,18.50
2016,06,20,12,22,18.60
2016,06,20,12,23,18.60
2016,06,20,12,24,18.70
2016,06,20,12,25,18.70
2016,06,20,12,26,18.70
2016,06,20,12,27,18.70
2016,06,20,12,28,18.80
2016,06,20,12,29,18.70
2016,06,20,12,30,18.70
2016,06,20,12,31,18.70
2016,06,20,12,32,18.60
2016,06,20,12,33,18.60
2016,06,20,12,34,18.50
2016,06,20,12,35,18.40
2016,06,20,12,36,18.50
2016,06,20,12,37,18.50
2016,06,20,12,38,18.50
2016,06,20,12,39,18.60
2016,06,20,12,40,18.60
2016,06,20,12,41,18.70
2016,06,20,12,42,18.80
2016,06,20,12,43,18.90
2016,06,20,12,44,18.90
2016,06,20,12,45,18.90
2016,06,20,12,46,18.90
2016,06,20,12,47,18.90
2016,06,20,12,48,18.90
2016,06,20,12,49,18.90
2016,06,20,12,50,18.90
2016,06,20,12,51,19.00
2016,06,20,12,52,19.10
2016,06,20,12,53,19.20
2016,06,20,12,54,19.40
2016,06,20,12,55,19.50
2016,06,20,12,56,19.40
2016,06,20,12,57,19.40
2016,06,20,12,58,19.40
2016,06,20,12,59,19.30
2016,06,20,13,00,19.20
2016,06,20,13,01,19.20
2016,06,20,13,02,19.20
2016,06,20,13,03,19.20
2016,06,20,13,04,19.20
2016,06,20,13,05,19.20
2016,06,20,13,06,19.20
2016,06,20,13,07,19.20
2016,06,20,13,08,19.30
2016,06,20,13,09,19.30
2016,06,20,13,10,19.30
2016,06,20,13,11,19.30
2016,06,20,13,12,19.30
2016,06,20,13,13,19.30
2016,06,20,13,14,19.30
2016,06,20,13,15,19.20
2016,06,20,13,16,19.10
2016,06,20,13,17,19.00
2016,06,20,13,18,18.90
2016,06,20,13,19,18.90
2016,06,20,13,20,18.80
2016,06,20,13,21,18.80
2016,06,20,13,22,18.80
2016,06,20,13,23,18.80
2016,06,20,13,24,18.90
2016,06,20,13,25,19.00
2016,06,20,13,26,19.10
2016,06,20,13,27,19.10
2016,06,20,13,28,19.10
2016,06,20,13,29,19.20
2016,06,20,13,30,19.20
2016,06,20,13,31,19.20
2016,06,20,13,32,19.20
2016,06,20,13,33,19.30
2016,06,20,13,34,19.40
2016,06,20,13,35,19.50
2016,06,20,13,36,19.50
2016,06,20,13,37,19.40
2016,06,20,13,38,19.40
2016,06,20,13,39,19.40
2016,06,20,13,40,19.40
2016,06,20,13,41,19.40
2016,06,20,13,42,19.30
2016,06,20,13,43,19.30
2016,06,20,13,44,19.40
2016,06,20,13,45,19.30
2016,06,20,13,46,19.40
2016,06,20,13,47,19.40
2016,06,20,13,48,19.40
2016,06,20,13,49,19.40
2016,06,20,13,50,19.40
2016,06,20,13,51,19.50
2016,06,20,13,52,19.50
2016,06,20,13,53,19.60
2016,06,20,13,54,19.60
2016,06,20,13,55,19.70
2016,06,20,13,56,19.70
2016,06,20,13,57,19.70
2016,06,20,13,58,19.70
2016,06,20,13,59,19.70
2016,06,20,14,00,19.80
2016,06,20,14,01,19.80
2016,06,20,14,02,19.70
2016,06,20,14,03,19.50
2016,06,20,14,04,19.40
2016,06,20,14,05,19.30
2016,06,20,14,06,19.30
2016,06,20,14,07,19.30
2016,06,20,14,08,19.40
2016,06,20,14,09,19.40
2016,06,20,14,10,19.50
2016,06,20,14,11,19.40
2016,06,20,14,12,19.50
2016,06,20,14,13,19.50
2016,06,20,14,14,19.40
2016,06,20,14,15,19.40
2016,06,20,14,16,19.40
2016,06,20,14,17,19.40
2016,06,20,14,18,19.40
2016,06,20,14,19,19.40
2016,06,20,14,20,19.40
2016,06,20,14,21,19.40
2016,06,20,14,22,19.40
2016,06,20,14,23,19.40
2016,06,20,14,24,19.50
2016,06,20,14,25,19.60
2016,06,20,14,26,19.70
2016,06,20,14,27,19.80
2016,06,20,14,28,20.00
2016,06,20,14,29,20.00
2016,06,20,14,30,20.10
2016,06,20,14,31,20.10
2016,06,20,14,32,20.10
2016,06,20,14,33,20.20
2016,06,20,14,34,20.30
2016,06,20,14,35,20.40
2016,06,20,14,36,20.50
2016,06,20,14,37,20.50
2016,06,20,14,38,20.40
2016,06,20,14,39,20.30
2016,06,20,14,40,20.40
2016,06,20,14,41,20.40
2016,06,20,14,42,20.50
2016,06,20,14,43,20.60
2016,06,20,14,44,20.60
2016,06,20,14,45,20.60
2016,06,20,14,46,20.70
2016,06,20,14,47,20.70
2016,06,20,14,48,20.80
2016,06,20,14,49,20.80
2016,06,20,14,50,20.90
2016,06,20,14,51,20.90
2016,06,20,14,52,20.90
2016,06,20,14,53,20.90
2016,06,20,14,54,20.90
2016,06,20,14,55,20.90
2016,06,20,14,56,20.90
2016,06,20,14,57,21.00
2016,06,20,14,58,21.10
2016,06,20,14,59,21.10
2016,06,20,15,00,21.10
2016,06,20,15,01,21.10
2016,06,20,15,02,21.20
2016,06,20,15,03,21.30
2016,06,20,15,04,21.40
2016,06,20,15,05,21.50
2016,06,20,15,06,21.60
2016,06,20,15,07,21.70
2016,06,20,15,08,21.80
2016,06,20,15,09,21.70
2016,06,20,15,10,21.70
2016,06,20,15,11,21.70
2016,06,20,15,12,21.70
2016,06,20,15,13,21.70
2016,06,20,15,14,21.80
2016,06,20,15,15,21.90
2016,06,20,15,16,21.90
2016,06,20,15,17,22.00
2016,06,20,15,18,22.00
2016,06,20,15,19,22.10
2016,06,20,15,20,22.10
2016,06,20,15,21,22.10
2016,06,20,15,22,22.10
2016,06,20,15,23,22.10
2016,06,20,15,24,22.00
2016,06,20,15,25,22.00
2016,06,20,15,26,21.90
2016,06,20,15,27,21.80
2016,06,20,15,28,21.80
2016,06,20,15,29,21.70
2016,06,20,15,30,21.60
2016,06,20,15,31,21.60
2016,06,20,15,32,21.60
2016,06,20,15,33,21.60
2016,06,20,15,34,21.60
2016,06,20,15,35,21.60
2016,06,20,15,36,21.70
2016,06,20,15,37,21.70
2016,06,20,15,38,21.70
2016,06,20,15,39,21.80
2016,06,20,15,40,21.80
2016,06,20,15,41,21.80
2016,06,20,15,42,21.80
2016,06,20,15,43,21.80
2016,06,20,15,44,21.80
2016,06,20,15,45,21.80
2016,06,20,15,46,21.80
2016,06,20,15,47,21.80
2016,06,20,15,48,21.90
2016,06,20,15,49,21.80
2016,06,20,15,50,21.90
2016,06,20,15,51,21.90
2016,06,20,15,52,21.90
2016,06,20,15,53,21.90
2016,06,20,15,54,21.90
2016,06,20,15,55,22.00
2016,06,20,15,56,22.00
2016,06,20,15,57,22.10
2016,06,20,15,58,22.20
2016,06,20,15,59,22.20
2016,06,20,16,00,22.20
2016,06,20,16,01,22.30
2016,06,20,16,02,22.30
2016,06,20,16,03,22.30
2016,06,20,16,04,22.40
2016,06,20,16,05,22.50
2016,06,20,16,06,22.70
2016,06,20,16,07,22.80
2016,06,20,16,08,23.00
2016,06,20,16,09,23.10
2016,06,20,16,10,23.10
2016,06,20,16,11,23.20
2016,06,20,16,12,23.10
2016,06,20,16,13,23.10
2016,06,20,16,14,23.10
2016,06,20,16,15,23.00
2016,06,20,16,16,22.80
2016,06,20,16,17,22.80
2016,06,20,16,18,22.80
2016,06,20,16,19,22.70
2016,06,20,16,20,22.70
2016,06,20,16,21,22.60
2016,06,20,16,22,22.50
2016,06,20,16,23,22.40
2016,06,20,16,24,22.40
2016,06,20,16,25,22.30
2016,06,20,16,26,22.30
2016,06,20,16,27,22.30
2016,06,20,16,28,22.40
2016,06,20,16,29,22.40
2016,06,20,16,30,22.40
2016,06,20,16,31,22.30
2016,06,20,16,32,22.30
2016,06,20,16,33,22.40
2016,06,20,16,34,22.40
2016,06,20,16,35,22.40
2016,06,20,16,36,22.40
2016,06,20,16,37,22.40
2016,06,20,16,38,22.40
2016,06,20,16,39,22.30
2016,06,20,16,40,22.30
2016,06,20,16,41,22.30
2016,06,20,16,42,22.20
2016,06,20,16,43,22.20
2016,06,20,16,44,22.20
2016,06,20,16,45,22.20
2016,06,20,16,46,22.30
2016,06,20,16,47,22.40
2016,06,20,16,48,22.50
2016,06,20,16,49,22.60
2016,06,20,16,50,22.70
2016,06,20,16,51,22.70
2016,06,20,16,52,22.80
2016,06,20,16,53,22.80
2016,06,20,16,54,22.90
2016,06,20,16,55,22.90
2016,06,20,16,56,23.00
2016,06,20,16,57,22.90
2016,06,20,16,58,22.90
2016,06,20,16,59,22.90
2016,06,20,17,00,22.90
2016,06,20,17,01,22.90
2016,06,20,17,02,22.90
2016,06,20,17,03,22.80
2016,06,20,17,04,22.80
2016,06,20,17,05,22.80
2016,06,20,17,06,22.80
2016,06,20,17,07,22.90
2016,06,20,17,08,22.90
2016,06,20,17,09,22.80
2016,06,20,17,10,22.80
2016,06,20,17,11,22.70
2016,06,20,17,12,22.70
2016,06,20,17,13,22.80
2016,06,20,17,14,22.80
2016,06,20,17,15,22.90
2016,06,20,17,16,23.00
2016,06,20,17,17,23.10
2016,06,20,17,18,23.10
2016,06,20,17,19,23.10
2016,06,20,17,20,23.10
2016,06,20,17,21,23.20
2016,06,20,17,22,23.20
2016,06,20,17,23,23.30
2016,06,20,17,24,23.40
2016,06,20,17,25,23.40
2016,06,20,17,26,23.40
2016,06,20,17,27,23.40